Change the Weather History Date:

Wednesday, September 25, 2013

  Actual Average Record
Temperature  
Mean Temperature 64 °F 59 °F  
Max Temperature 82 °F 74 °F 91 °F (1998)
Min Temperature 46 °F 44 °F 24 °F (1984)
Degree Days  
Heating Degree Days 1 7  
Month to date heating degree days 54 87  
Since 1 July heating degree days 63 98  
Cooling Degree Days 0 1  
Month to date cooling degree days 155 80  
Year to date cooling degree days 918 822  
Growing Degree Days 14 (Base 50)    
Moisture  
Dew Point 43 °F    
Average Humidity 51    
Maximum Humidity 76    
Minimum Humidity 25    
Precipitation  
Precipitation 0.00 in 0.03 in 0.60 in (1955)
Month to date precipitation 5.68 1.08  
Year to date precipitation 13.85 16.24  
Sea Level Pressure  
Sea Level Pressure 29.58 in    
Wind  
Wind Speed 14 mph (SSE)    
Max Wind Speed 24 mph    
Max Gust Speed 32 mph    
Visibility 10 miles    
Events      
T = Trace of Precipitation, MM = Missing Value Source: NWS Daily Summary

Daily Weather History Graph

Daily Weather History Graph

Search for Another Location

Airport or City:

Trip Planner

Search our weather history database for the weather conditions in past years. The results will help you decide how hot, cold, wet, or windy it might be!

Date:

Astronomy

Sep. 25, 2013 Rise Set
Actual Time 6:42 AM MDT 6:43 PM MDT
Civil Twilight 6:15 AM MDT 7:10 PM MDT
Nautical Twilight 5:43 AM MDT 7:42 PM MDT
Astronomical Twilight 5:10 AM MDT 8:15 PM MDT
Moon 10:49 PM MDT (9/25) 12:52 PM MDT (9/25)
Length of Visible Light 12h 55m
Length of Day
12h 00m
Waning Gibbous, 63% of the Moon is Illuminated
Sep 25
Waning Gibbous
Sep 26
Last Quarter
Oct 4
New
Oct 11
First Quarter
Oct 18
Full

Hourly Weather History & Observations

Time (MDT) Temp. Dew Point Humidity Pressure Visibility Wind Dir Wind Speed Gust Speed Precip Events Conditions
12:53 AM 53.1 °F 41.0 °F 64% 29.80 in 10.0 mi South 13.8 mph - N/A   Clear
1:53 AM 54.0 °F 39.9 °F 59% 29.77 in 10.0 mi South 17.3 mph - N/A   Clear
2:53 AM 54.0 °F 39.0 °F 57% 29.74 in 10.0 mi South 18.4 mph - N/A   Clear
3:53 AM 53.1 °F 39.0 °F 59% 29.72 in 10.0 mi SSE 11.5 mph - N/A   Clear
4:53 AM 48.9 °F 39.9 °F 71% 29.72 in 10.0 mi South 8.1 mph - N/A   Clear
5:53 AM 48.9 °F 39.0 °F 69% 29.72 in 10.0 mi Calm Calm - N/A   Clear
6:53 AM 46.9 °F 39.0 °F 74% 29.74 in 10.0 mi SSE 5.8 mph - N/A   Clear
7:53 AM 51.1 °F 39.9 °F 66% 29.72 in 10.0 mi SE 15.0 mph - N/A   Clear
8:53 AM 55.9 °F 42.1 °F 60% 29.70 in 10.0 mi SSE 10.4 mph - N/A   Clear
9:53 AM 59.0 °F 44.1 °F 58% 29.68 in 10.0 mi SSE 12.7 mph - N/A   Clear
10:53 AM 63.0 °F 46.9 °F 56% 29.65 in 10.0 mi South 10.4 mph - N/A   Clear
11:53 AM 66.9 °F 48.0 °F 51% 29.62 in 10.0 mi SE 10.4 mph - N/A   Clear
12:53 PM 72.0 °F 46.9 °F 41% 29.56 in 10.0 mi SSE 18.4 mph - N/A   Clear
1:53 PM 77.0 °F 46.0 °F 33% 29.51 in 10.0 mi SSE 18.4 mph 25.3 mph N/A   Clear
2:53 PM 79.0 °F 44.1 °F 29% 29.46 in 10.0 mi SSE 18.4 mph 24.2 mph N/A   Clear
3:53 PM 82.0 °F 44.1 °F 26% 29.43 in 10.0 mi SSE 17.3 mph 25.3 mph N/A   Clear
4:53 PM 79.0 °F 46.9 °F 32% 29.42 in 10.0 mi SE 19.6 mph - N/A   Clear
5:53 PM 79.0 °F 39.9 °F 25% 29.40 in 10.0 mi South 17.3 mph - N/A   Clear
6:53 PM 66.0 °F 46.9 °F 50% 29.42 in 10.0 mi SE 10.4 mph - N/A   Clear
7:53 PM 63.0 °F 45.0 °F 52% 29.43 in 10.0 mi SSE 11.5 mph - N/A   Clear
8:53 PM 69.1 °F 41.0 °F 36% 29.39 in 10.0 mi South 17.3 mph - N/A   Clear
9:53 PM 64.9 °F 43.0 °F 45% 29.40 in 10.0 mi South 13.8 mph - N/A   Clear
10:53 PM 60.1 °F 46.0 °F 60% 29.42 in 10.0 mi SSW 10.4 mph - N/A   Clear
11:24 PM 60.8 °F 46.4 °F 59% 29.56 in 10.0 mi West 9.2 mph - N/A   Clear
11:53 PM 59.0 °F 45.0 °F 60% 29.45 in 10.0 mi NW 13.8 mph - N/A   Clear